[[{"header":{"parameterUnit":"m.s-1","parameterCategory":1,"la1":30.2991,"la2":30.254,"lo1":-89.0895,"lo2":-89.0444,"dy":0.0017,"dx":0.0017,"nx":28,"ny":28,"refTime":"2025-11-08T03:00:00:Z","depth":0,"parameterNumber":2,"parameterNumberName":"U-component_of_WINDS"},"data":[0,0,0,0,0,0,0,0,0,0,0,0,0,0,0,0,0,0,0,0,0,0,0,0,0,0,0,0,0,0,0,0,0,0,0,0,0,0,0,0,0,0,0,0,0,0,0,0,0,0,0,0,0,0,0,0,0,0,2.3802,2.3803,0,2.3881,2.3882,2.3883,2.3924,2.3924,2.3924,2.3925,2.4007,2.4009,2.4011,0,0,0,0,0,0,0,0,0,0,0,0,0,2.3687,2.3689,2.3802,2.3803,2.3804,2.3881,2.3882,2.3883,2.3924,2.3924,2.3924,2.3925,2.4006,2.4008,2.4011,0,0,0,0,0,0,0,0,0,0,0,0,0,2.3749,2.369,2.3802,2.3834,2.3837,2.3881,2.3882,2.3884,2.3924,2.3924,2.3925,2.3925,2.4005,2.4008,2.4011,2.4029,0,0,2.4021,2.4022,0,0,0,0,0,0,0,0,2.3745,2.3753,2.3828,2.3831,2.3836,2.3893,2.3872,2.3933,2.3924,2.3891,2.3925,2.3925,2.3969,2.3975,2.399,2.4033,2.4037,2.4021,2.4023,2.4025,2.4026,0,0,0,0,0,0,0,2.3741,2.375,2.3833,2.3829,2.3834,2.3845,2.3853,2.3884,2.3929,2.3894,2.3897,2.3906,2.3971,2.3986,2.3992,2.4038,2.4021,2.4024,2.4026,2.4027,2.4103,2.4103,0,0,0,0,0,0,2.3731,2.3746,2.3831,2.3836,2.379,2.3847,2.3856,2.3874,2.3928,2.3937,2.3906,2.3908,2.3981,2.3988,2.3995,2.4022,2.4025,2.4028,2.4029,2.4103,2.4103,2.4104,0,0,0,0,0,0,2.3729,2.3739,2.3828,2.3792,2.3804,2.3848,2.3868,2.3876,2.3892,2.3937,2.3946,2.3914,2.3981,2.399,2.4021,2.4025,2.4029,2.4032,2.4103,2.4103,2.4103,2.4074,0,0,0,0,0,0,2.3725,2.3737,2.3744,2.3792,2.3806,2.3852,2.3869,2.3878,2.3897,2.39,2.3947,2.3954,2.3982,2.4016,2.4024,2.4029,2.4034,2.4103,2.4103,2.4103,2.4075,2.4073,2.4071,0,0,0,0,0,2.3721,2.3732,2.3744,2.3754,2.3815,2.3852,2.386,2.3891,2.3897,2.3905,2.3935,2.3953,2.4023,2.4019,2.4028,2.4035,2.4103,2.4103,2.4103,2.4075,2.4073,2.4072,0,0,0,0,0,0,2.3684,2.3739,2.3753,2.378,2.3811,2.3859,2.3869,2.3888,2.3918,2.3919,2.3957,2.3967,2.3995,2.4018,2.4012,2.4056,2.4065,2.4067,2.404,2.4039,2.4037,2.4032,2.4037,0,0,0,0,0,2.3678,2.3703,2.375,2.377,2.3784,2.3824,2.3841,2.3863,2.3897,2.391,2.3942,2.3974,2.4004,2.4023,2.4052,2.4078,2.409,2.4087,2.4086,2.4084,2.4086,2.4103,2.4103,2.4104,2.4104,2.4104,0,0,2.3668,2.3701,2.3715,2.3763,2.379,2.3815,2.3835,2.3861,2.3881,2.3914,2.3945,2.397,2.4009,2.4038,2.4052,2.4058,2.4088,2.4084,2.4083,2.4085,2.4104,2.4104,2.4103,2.4104,2.4104,2.4104,0,0,2.3663,2.369,2.371,2.3736,2.3777,2.3803,2.3808,2.3854,2.3871,2.3903,2.393,2.3954,2.4004,2.4031,2.4051,2.4058,2.4077,2.4067,2.4059,2.4075,2.4075,2.4076,2.408,2.408,2.4068,2.4068,2.4068,0,2.3645,2.3684,2.3717,2.3743,2.3764,2.3796,2.3817,2.3841,2.3889,2.3903,2.3909,2.3973,2.4001,2.4038,2.404,2.4055,2.4063,2.4062,2.4073,2.4073,2.4074,2.4078,2.4079,2.4067,2.4067,2.4067,2.4067,0,2.3661,2.3688,2.3699,2.3746,2.3768,2.3791,2.3829,2.3847,2.3867,2.3894,2.3927,2.3962,2.4001,2.4011,2.403,2.4051,2.4054,2.4065,2.4075,2.4072,2.4077,2.4078,2.4065,2.4065,2.4066,2.4066,0,0,2.3633,2.3699,2.3703,2.3725,2.3773,2.3795,2.382,2.3857,2.3874,2.3906,2.3929,2.3971,2.3983,2.4006,2.4029,2.4043,2.4049,2.4054,2.4056,2.4053,2.4076,2.4068,2.4069,2.4062,2.4062,2.4062,2.4074,0,2.3636,2.3682,2.3714,2.3748,2.3775,2.3806,2.3829,2.3861,2.3886,2.3913,2.3942,2.3972,2.3984,2.3998,2.4014,2.4045,2.4055,2.4045,2.4085,2.4086,2.4075,2.4072,2.4062,2.4071,2.4076,2.4076,2.4076,0,2.3645,2.3677,2.3714,2.3761,2.3773,2.3792,2.3831,2.3855,2.3893,2.3911,2.3938,2.3961,2.3991,2.3997,2.4039,2.4032,2.405,2.4068,2.4069,2.4075,2.4081,2.4078,2.4075,2.4076,2.4079,2.4079,2.4079,0,2.3623,2.3675,2.3705,2.3723,2.3778,2.3791,2.3814,2.3852,2.3874,2.3907,2.3922,2.3958,2.3978,2.4006,2.404,2.4041,2.4078,2.4087,2.4095,2.4094,2.4102,2.4101,2.4102,2.4112,2.4112,2.4112,2.4112,0,2.3623,2.3645,2.3696,2.3715,2.3741,2.3777,2.3802,2.3828,2.3862,2.3887,2.3916,2.3939,2.3981,2.4009,2.4036,2.4067,2.4076,2.4092,2.4099,2.409,2.4088,2.4103,2.4104,2.4112,2.4112,2.4112,2.4112,0,2.3603,2.3638,2.3673,2.3723,2.3736,2.3753,2.3796,2.3815,2.3843,2.3874,2.3883,2.3927,2.3962,2.3998,2.4045,2.4063,2.4094,2.4103,2.4081,2.4085,2.4092,2.4091,2.4103,2.4107,2.4113,2.4113,2.4112,0,2.3601,2.3619,2.3671,2.369,2.3713,2.3742,2.3764,2.3801,2.3824,2.3869,2.3884,2.3921,2.3952,2.4007,2.4043,2.408,2.4091,2.4093,2.4097,2.4088,2.4093,2.4092,2.4095,2.4092,2.4091,2.4091,2.4091,0,2.3595,2.3612,2.3643,2.368,2.3706,2.3737,2.3769,2.3783,2.3827,2.385,2.3887,2.3911,2.396,2.3997,2.4039,2.4064,2.4085,2.4089,2.4093,2.4085,2.4072,2.4081,2.4079,2.4089,2.4089,2.4089,2.4089,2.409,2.3585,2.3603,2.3643,2.3677,2.3705,2.3735,2.3757,2.3787,2.3818,2.3861,2.3881,2.3918,2.3957,2.4015,2.404,2.407,2.4076,2.4081,2.4083,2.4084,2.4082,2.4067,2.4077,2.4078,2.4078,2.4078,2.4078,0,2.3581,2.3609,2.364,2.3685,2.3712,2.3729,2.3767,2.3788,2.382,2.3855,2.3886,2.3929,2.3965,2.4005,2.4044,2.4061,2.4072,2.407,2.4069,2.4075,2.4074,2.4067,2.4061,2.4061,2.4061,2.4061,2.4061,2.4061,2.3583,2.3615,2.3637,2.3684,2.3712,2.3748,2.3768,2.3796,2.3824,2.3871,2.3901,2.3927,2.3964,2.4007,2.4042,2.4053,2.4066,2.4062,2.4076,2.4074,2.4075,2.4076,2.407,2.4064,2.4064,2.4075,2.4075,2.4075]},{"header":{"parameterUnit":"m.s-1","parameterCategory":1,"la1":30.2991,"la2":30.254,"lo1":-89.0895,"lo2":-89.0444,"dy":0.0017,"dx":0.0017,"nx":28,"ny":28,"refTime":"2025-11-08T03:00:00:Z","depth":0,"parameterNumber":3,"parameterNumberName":"V-component_of_WINDS"},"data":[0,0,0,0,0,0,0,0,0,0,0,0,0,0,0,0,0,0,0,0,0,0,0,0,0,0,0,0,0,0,0,0,0,0,0,0,0,0,0,0,0,0,0,0,0,0,0,0,0,0,0,0,0,0,0,0,0,0,2.4513,2.4513,0,2.4487,2.4487,2.4486,2.4481,2.4481,2.4481,2.4481,2.445,2.4449,2.4448,0,0,0,0,0,0,0,0,0,0,0,0,0,2.4555,2.4554,2.4513,2.4513,2.4513,2.4487,2.4487,2.4486,2.4481,2.4481,2.4481,2.4481,2.445,2.4449,2.4448,0,0,0,0,0,0,0,0,0,0,0,0,0,2.4533,2.4554,2.4513,2.4507,2.4506,2.4487,2.4487,2.4486,2.4481,2.4481,2.4481,2.4482,2.4451,2.4449,2.4448,2.4432,0,0,2.4443,2.4442,0,0,0,0,0,0,0,0,2.4535,2.4532,2.4508,2.4507,2.4506,2.4488,2.449,2.4468,2.4481,2.449,2.4481,2.4482,2.4462,2.4459,2.4454,2.443,2.4429,2.4443,2.4442,2.4441,2.4441,0,0,0,0,0,0,0,2.4536,2.4533,2.4503,2.4508,2.4507,2.4504,2.4501,2.4486,2.4474,2.4489,2.4489,2.4486,2.4461,2.4455,2.4453,2.4428,2.4443,2.4441,2.444,2.444,2.4392,2.4392,0,0,0,0,0,0,2.4539,2.4534,2.4503,2.4502,2.4522,2.4503,2.45,2.4493,2.4475,2.4472,2.4486,2.4486,2.4458,2.4455,2.4452,2.4433,2.4441,2.444,2.4439,2.4392,2.4392,2.4392,0,0,0,0,0,0,2.454,2.4537,2.4505,2.4518,2.4514,2.4502,2.4494,2.4492,2.4486,2.4472,2.447,2.4482,2.4458,2.4454,2.4437,2.4431,2.4439,2.4437,2.4393,2.4392,2.4392,2.4394,0,0,0,0,0,0,2.4541,2.4537,2.4532,2.4518,2.4513,2.4492,2.4494,2.4492,2.4484,2.4484,2.4468,2.4465,2.4458,2.444,2.4436,2.4429,2.4436,2.4393,2.4393,2.4392,2.4394,2.4394,2.4393,0,0,0,0,0,2.4543,2.4532,2.4531,2.4528,2.4506,2.4491,2.4488,2.4481,2.4484,2.4478,2.4469,2.4466,2.4433,2.4438,2.4434,2.4427,2.4393,2.4393,2.4392,2.4395,2.4394,2.4393,0,0,0,0,0,0,2.4543,2.453,2.4529,2.4514,2.4504,2.449,2.4483,2.4481,2.4469,2.4469,2.4459,2.4456,2.444,2.4431,2.4437,2.4411,2.4413,2.4412,2.4417,2.4416,2.4415,2.4417,2.4435,0,0,0,0,0,2.4542,2.4532,2.4521,2.4508,2.4503,2.4494,2.4487,2.4483,2.4472,2.4467,2.4457,2.4445,2.4432,2.4424,2.4411,2.4394,2.439,2.4387,2.4386,2.4386,2.4384,2.4375,2.4373,2.4389,2.4389,2.4389,0,0,2.4538,2.453,2.4524,2.4508,2.45,2.4489,2.449,2.4478,2.447,2.4465,2.4449,2.4441,2.4427,2.4411,2.4403,2.4403,2.4379,2.4385,2.4384,2.4383,2.4374,2.4373,2.4371,2.4389,2.4389,2.4389,0,0,2.4526,2.4519,2.4508,2.45,2.4489,2.4483,2.4481,2.4468,2.4463,2.4448,2.4444,2.4433,2.4411,2.4402,2.4394,2.4381,2.4377,2.4377,2.4373,2.4364,2.4363,2.4362,2.4357,2.4355,2.4375,2.4375,2.4375,0,2.4522,2.4507,2.4502,2.4491,2.4484,2.4481,2.447,2.4462,2.4447,2.4441,2.4443,2.4417,2.4407,2.4388,2.4385,2.4379,2.4376,2.4378,2.4364,2.4362,2.4361,2.4356,2.4355,2.4375,2.4375,2.4375,2.4375,0,2.4503,2.4493,2.4485,2.4472,2.4465,2.4453,2.4446,2.4439,2.4436,2.443,2.4414,2.4403,2.4389,2.4384,2.438,2.4365,2.4366,2.4366,2.4367,2.436,2.4355,2.4353,2.4375,2.4375,2.4375,2.4375,0,0,2.4488,2.4475,2.4472,2.4467,2.4455,2.4446,2.4435,2.4423,2.4417,2.4406,2.4396,2.4379,2.4379,2.437,2.4365,2.4358,2.4348,2.4359,2.4358,2.4357,2.4332,2.4332,2.433,2.4347,2.4346,2.4346,2.4333,0,2.4474,2.4456,2.4452,2.4435,2.4426,2.4424,2.4414,2.4405,2.4399,2.439,2.4383,2.4371,2.4372,2.4367,2.436,2.4351,2.4343,2.4352,2.4336,2.4336,2.434,2.4328,2.4327,2.4316,2.4331,2.4331,2.4331,0,2.4455,2.4447,2.443,2.4421,2.4416,2.4408,2.4397,2.4388,2.4378,2.4374,2.4366,2.4363,2.435,2.4354,2.4337,2.4343,2.4336,2.4331,2.4331,2.4328,2.4332,2.4325,2.4312,2.431,2.4328,2.4328,2.4328,0,2.4446,2.4431,2.4419,2.4414,2.4403,2.4397,2.4392,2.4383,2.4376,2.4366,2.4362,2.435,2.4343,2.4334,2.4327,2.433,2.4311,2.4313,2.4307,2.4307,2.4302,2.4302,2.4287,2.4298,2.4298,2.4298,2.4298,0,2.4431,2.442,2.4415,2.4407,2.4396,2.4391,2.438,2.4374,2.4367,2.4357,2.4355,2.4346,2.4338,2.4328,2.4323,2.4309,2.4306,2.4302,2.4301,2.4302,2.4303,2.4297,2.4298,2.4298,2.4298,2.4298,2.4298,0,2.4418,2.4414,2.4401,2.4392,2.439,2.4382,2.4374,2.4367,2.4362,2.4351,2.4348,2.4339,2.4328,2.4321,2.4305,2.4302,2.4287,2.4286,2.4291,2.429,2.4284,2.4285,2.4265,2.4262,2.4276,2.4275,2.4275,0,2.4408,2.44,2.4392,2.4387,2.4382,2.4373,2.4367,2.4363,2.4356,2.4346,2.4339,2.4328,2.4319,2.4301,2.4293,2.4281,2.428,2.4274,2.4278,2.428,2.4279,2.428,2.4279,2.4272,2.4272,2.4272,2.4272,0,2.4391,2.439,2.4382,2.4374,2.4367,2.436,2.4352,2.4348,2.4342,2.4335,2.4325,2.4318,2.4304,2.4292,2.4281,2.4274,2.4272,2.4271,2.4269,2.427,2.4273,2.4271,2.4289,2.4271,2.4271,2.4271,2.4271,2.4271,2.4379,2.4372,2.4366,2.4357,2.4352,2.4346,2.4339,2.4334,2.4326,2.4315,2.4313,2.4302,2.4293,2.4278,2.4271,2.4262,2.4263,2.426,2.4259,2.4258,2.4258,2.4276,2.426,2.426,2.426,2.426,2.426,0,2.4361,2.4358,2.435,2.4341,2.4335,2.4336,2.4328,2.4322,2.4313,2.4306,2.4298,2.4286,2.4275,2.4268,2.4257,2.4251,2.425,2.4248,2.4248,2.4247,2.4258,2.4261,2.425,2.425,2.425,2.425,2.425,2.425,2.4351,2.4341,2.4339,2.4326,2.4322,2.4312,2.4308,2.4302,2.4297,2.4284,2.4277,2.4273,2.4265,2.4254,2.4245,2.4243,2.4239,2.4238,2.4235,2.4245,2.4246,2.4247,2.425,2.4237,2.4237,2.4226,2.4225,2.4225]}]]